| time (UTC) | temp F | wind direction | speed knots | gust knots | rain 1hr in | rain 24hr in | rain mn in | humidity % | barometer mb |
| 20260505023022 | 51 | 360 | 0.9 | 2.6 | 0.00 | 0.02 | 0.02 | 46 | 1001.8 |
| 20260505021518 | 52 | 360 | 0.0 | 0.9 | 0.00 | 0.02 | 0.02 | 46 | 1001.8 |
| 20260505020016 | 53 | 207 | 1.7 | 3.5 | 0.00 | 0.02 | 0.02 | 43 | 1001.6 |
| 20260505014518 | 54 | 346 | 0.0 | 0.0 | 0.00 | 0.02 | 0.02 | 44 | 1001.5 |
| 20260505013021 | 54 | 346 | 0.0 | 0.0 | 0.00 | 0.02 | 0.02 | 44 | 1001.6 |
| 20260505011519 | 55 | 346 | 0.0 | 0.0 | 0.00 | 0.02 | 0.02 | 43 | 1001.6 |
| 20260505010018 | 55 | 346 | 0.9 | 2.6 | 0.01 | 0.02 | 0.02 | 42 | 1001.6 |
| 20260505004521 | 54 | 360 | 0.0 | 6.1 | 0.01 | 0.02 | 0.02 | 35 | 1001.8 |
| 20260505003017 | 53 | 174 | 5.2 | 9.6 | 0.01 | 0.02 | 0.02 | 39 | 1001.7 |
| 20260505001516 | 52 | 168 | 7.8 | 13.9 | 0.02 | 0.02 | 0.02 | 42 | 1001.8 |
| 20260505000027 | 51 | 360 | 3.5 | 17.4 | 0.01 | 0.01 | 0.01 | 42 | 1002.8 |
| 20260504234513 | 50 | 360 | 9.6 | 17.4 | 0.01 | 0.01 | 0.01 | 51 | 1003.0 |
| 20260504233017 | 50 | 360 | 4.3 | 11.3 | 0.01 | 0.01 | 0.01 | 51 | 1003.1 |
| 20260504231522 | 50 | 360 | 7.8 | 19.1 | 0.00 | 0.00 | 0.00 | 48 | 1003.4 |
| 20260504230007 | 51 | 360 | 7.8 | 18.2 | 0.00 | 0.00 | 0.00 | 47 | 1003.3 |
| 20260504224506 | 54 | 360 | 4.3 | 15.6 | 0.00 | 0.00 | 0.00 | 41 | 1002.4 |
| 20260504223005 | 55 | 360 | 6.1 | 14.8 | 0.00 | 0.00 | 0.00 | 34 | 1002.1 |
| 20260504221502 | 56 | 360 | 8.7 | 18.2 | 0.00 | 0.00 | 0.00 | 36 | 1001.9 |
| 20260504220005 | 59 | 183 | 7.8 | 13.9 | 0.00 | 0.00 | 0.00 | 31 | 1001.9 |
| 20260504214501 | 62 | 360 | 10.4 | 14.8 | 0.00 | 0.00 | 0.00 | 27 | 1001.9 |
| 20260504213004 | 63 | 360 | 0.9 | 11.3 | 0.00 | 0.00 | 0.00 | 20 | 1001.4 |
| 20260504211501 | 65 | 355 | 4.3 | 9.6 | 0.00 | 0.00 | 0.00 | 18 | 1001.5 |
| 20260504210109 | 65 | 355 | 5.2 | 10.4 | 0.00 | 0.00 | 0.00 | 23 | 1001.8 |
| 20260504204602 | 63 | 5 | 1.7 | 7.8 | 0.00 | 0.00 | 0.00 | 23 | 1002.0 |
| 20260504203054 | 62 | 355 | 2.6 | 7.0 | 0.00 | 0.00 | 0.00 | 23 | 1002.2 |
| 20260504200050 | 61 | 59 | 2.6 | 11.3 | 0.00 | 0.00 | 0.00 | 24 | 1002.7 |
| 20260504194604 | 62 | 56 | 2.6 | 13.0 | 0.00 | 0.00 | 0.00 | 20 | 1002.7 |
| 20260504193048 | 62 | 55 | 3.5 | 9.6 | 0.00 | 0.00 | 0.00 | 24 | 1002.7 |
| 20260504190113 | 64 | 360 | 5.2 | 15.6 | 0.00 | 0.00 | 0.00 | 19 | 1003.0 |
| 20260504184556 | 64 | 360 | 5.2 | 9.6 | 0.00 | 0.00 | 0.00 | 22 | 1002.7 |
| 20260504183047 | 66 | 360 | 2.6 | 11.3 | 0.00 | 0.00 | 0.00 | 19 | 1002.8 |
| 20260504180115 | 64 | 144 | 7.0 | 14.8 | 0.00 | 0.00 | 0.00 | 23 | 1002.9 |
| 20260504174542 | 63 | 355 | 0.9 | 7.8 | 0.00 | 0.00 | 0.00 | 19 | 1003.1 |
| 20260504173053 | 64 | 42 | 4.3 | 8.7 | 0.00 | 0.00 | 0.00 | 20 | 1003.1 |
| 20260504140105 | 40 | 360 | 0.0 | 0.0 | 0.00 | 0.00 | 0.00 | 52 | 1005.4 |
| 20260504044532 | 47 | 360 | 0.0 | 0.0 | 0.00 | 0.00 | 0.00 | 32 | 1006.0 |
| 20260504043026 | 48 | 360 | 0.0 | 0.0 | 0.00 | 0.00 | 0.00 | 30 | 1006.0 |
| 20260504040024 | 50 | 360 | 0.0 | 0.0 | 0.00 | 0.00 | 0.00 | 27 | 1005.9 |
| 20260504034531 | 52 | 360 | 0.0 | 0.0 | 0.00 | 0.00 | 0.00 | 26 | 1005.7 |
| 20260504033015 | 53 | 360 | 0.0 | 0.0 | 0.00 | 0.00 | 0.00 | 23 | 1005.8 |
| 20260504030004 | 55 | 360 | 0.9 | 2.6 | 0.00 | 0.00 | 0.00 | 22 | 1005.8 |
| 20260504024604 | 57 | 360 | 0.0 | 2.6 | 0.00 | 0.00 | 0.00 | 19 | 1005.6 |
| 20260504023055 | 58 | 360 | 1.7 | 3.5 | 0.00 | 0.00 | 0.00 | 15 | 1005.6 |